[[{"header":{"parameterUnit":"m.s-1","parameterCategory":1,"la1":30.2991,"la2":30.254,"lo1":-89.0895,"lo2":-89.0444,"dy":0.0017,"dx":0.0017,"nx":28,"ny":28,"refTime":"2025-03-20T09:00:00:Z","depth":0,"parameterNumber":2,"parameterNumberName":"U-component_of_WINDS"},"data":[0,0,0,0,0,0,0,0,0,0,0,0,0,0,0,0,0,0,0,0,0,0,0,0,0,0,0,0,0,0,0,0,0,0,0,0,0,0,0,0,0,0,0,0,0,0,0,0,0,0,0,0,0,0,0,0,0,0,5.1329,5.133,0,5.1416,5.1417,5.1418,5.1394,5.1392,5.139,5.1389,5.1477,5.1481,5.1485,0,0,0,0,0,0,0,0,0,0,0,0,0,5.1143,5.1146,5.1329,5.133,5.1331,5.1416,5.1417,5.1418,5.1394,5.1392,5.139,5.1388,5.1476,5.1481,5.1485,0,0,0,0,0,0,0,0,0,0,0,0,0,5.1226,5.1147,5.1328,5.1329,5.133,5.1415,5.1417,5.1418,5.1394,5.1392,5.1389,5.1387,5.1474,5.148,5.1486,5.1576,0,0,5.1504,5.1507,0,0,0,0,0,0,0,0,5.1221,5.1233,5.1328,5.1329,5.133,5.1391,5.1384,5.1471,5.1395,5.137,5.1389,5.1385,5.1451,5.1458,5.1481,5.158,5.1584,5.1505,5.1509,5.1511,5.1513,0,0,0,0,0,0,0,5.1216,5.1229,5.1363,5.1329,5.1331,5.1325,5.1334,5.14,5.1424,5.1372,5.137,5.1381,5.1451,5.1475,5.1482,5.1585,5.1505,5.151,5.1514,5.1516,5.1766,5.1769,0,0,0,0,0,0,5.1209,5.1224,5.136,5.1366,5.1268,5.1331,5.1341,5.1374,5.1423,5.1428,5.1383,5.138,5.1466,5.1475,5.1485,5.1596,5.1511,5.1517,5.152,5.1763,5.1767,5.177,0,0,0,0,0,0,5.1205,5.1221,5.1357,5.1295,5.1312,5.1337,5.1375,5.1377,5.1401,5.1432,5.1436,5.1403,5.1464,5.1477,5.1554,5.1598,5.1519,5.1525,5.1759,5.1764,5.1768,5.1816,0,0,0,0,0,0,5.12,5.122,5.1254,5.1296,5.1315,5.1424,5.1377,5.1381,5.1412,5.1408,5.1452,5.1456,5.1463,5.1546,5.156,5.1605,5.153,5.1755,5.1761,5.1767,5.181,5.1821,5.1831,0,0,0,0,0,5.1193,5.1263,5.1255,5.1272,5.1358,5.1426,5.1437,5.1444,5.1415,5.145,5.147,5.1455,5.1591,5.1554,5.157,5.1617,5.1753,5.176,5.1766,5.1806,5.1819,5.183,0,0,0,0,0,0,5.1224,5.1268,5.126,5.1346,5.1383,5.1422,5.1466,5.1457,5.1502,5.1497,5.1503,5.1513,5.1593,5.1613,5.157,5.1709,5.1668,5.1678,5.1692,5.1705,5.1715,5.1709,5.1535,0,0,0,0,0,5.1241,5.1293,5.1329,5.14,5.1419,5.144,5.147,5.1472,5.151,5.1525,5.1551,5.1589,5.164,5.1674,5.1723,5.1813,5.1824,5.1854,5.1865,5.1873,5.1882,5.1933,5.1948,5.1792,5.1792,5.1792,0,0,5.1276,5.1307,5.1339,5.1408,5.1436,5.1491,5.1453,5.1511,5.1552,5.1534,5.1609,5.163,5.1672,5.1757,5.1796,5.1776,5.1927,5.1881,5.1888,5.1892,5.1942,5.1957,5.197,5.1797,5.1796,5.1795,0,0,5.1368,5.1396,5.146,5.149,5.1535,5.1548,5.1564,5.1606,5.1619,5.1694,5.1683,5.1732,5.182,5.1852,5.1879,5.1987,5.1975,5.2003,5.2056,5.2106,5.2119,5.213,5.2169,5.2183,5.2012,5.2012,5.2012,0,5.1406,5.1487,5.1494,5.1554,5.1585,5.1574,5.1639,5.1668,5.1726,5.1749,5.1726,5.1839,5.1866,5.196,5.1986,5.2009,5.2028,5.1997,5.2116,5.2127,5.2138,5.2176,5.2191,5.2015,5.2015,5.2014,5.2014,0,5.1532,5.1589,5.1635,5.1693,5.173,5.1793,5.181,5.1846,5.1846,5.1862,5.1941,5.1974,5.2031,5.2054,5.2053,5.2148,5.2135,5.2115,5.2074,5.2156,5.2192,5.2206,5.2019,5.2018,5.2017,5.2017,0,0,5.1644,5.1707,5.1724,5.1751,5.1801,5.1845,5.1909,5.1965,5.1997,5.2038,5.2092,5.2169,5.2151,5.2183,5.2186,5.2231,5.2316,5.2205,5.2206,5.2225,5.2425,5.244,5.2456,5.2309,5.2312,5.2314,5.2421,0,5.1741,5.1852,5.1861,5.1961,5.2015,5.2006,5.2062,5.2099,5.2117,5.2165,5.2185,5.2239,5.2211,5.2231,5.2274,5.2296,5.2356,5.2289,5.236,5.2363,5.235,5.2475,5.249,5.259,5.2435,5.2438,5.2439,0,5.1868,5.1915,5.2021,5.2066,5.2089,5.2138,5.2192,5.2238,5.2281,5.2291,5.2328,5.2327,5.2393,5.2351,5.2443,5.2397,5.2427,5.2443,5.2447,5.2454,5.2406,5.2486,5.2621,5.2637,5.2461,5.246,5.2458,0,5.194,5.203,5.2105,5.2129,5.2183,5.2218,5.2242,5.2283,5.2317,5.2364,5.2387,5.2441,5.2471,5.2513,5.2527,5.2495,5.262,5.2578,5.2631,5.2631,5.2657,5.2655,5.28,5.2676,5.2676,5.2675,5.2675,0,5.2047,5.2113,5.2139,5.2185,5.2259,5.227,5.2343,5.2365,5.2402,5.2453,5.2449,5.2498,5.2513,5.2564,5.2576,5.2652,5.2665,5.2675,5.2678,5.2676,5.2675,5.2695,5.2689,5.2679,5.2679,5.2678,5.2677,0,5.214,5.216,5.2242,5.2288,5.2301,5.2353,5.2392,5.2438,5.2456,5.2521,5.2537,5.2566,5.2626,5.2645,5.2717,5.2725,5.2815,5.281,5.28,5.28,5.2852,5.2848,5.3016,5.3039,5.2899,5.2901,5.2902,0,5.2207,5.2258,5.2309,5.2344,5.237,5.2425,5.2461,5.2474,5.2512,5.2566,5.2606,5.2666,5.2715,5.2813,5.284,5.2897,5.2894,5.2949,5.2902,5.29,5.2896,5.2893,5.2899,5.2958,5.2959,5.2961,5.2962,0,5.2325,5.2333,5.2384,5.244,5.2483,5.2527,5.257,5.2599,5.2619,5.2661,5.2724,5.2762,5.2838,5.2898,5.2956,5.2982,5.2976,5.2977,5.2992,5.299,5.2983,5.2989,5.2825,5.2972,5.2971,5.297,5.297,5.2969,5.2407,5.2453,5.2497,5.2555,5.2589,5.263,5.2676,5.27,5.2753,5.2816,5.2821,5.2889,5.2934,5.3011,5.304,5.3094,5.3078,5.31,5.3106,5.3111,5.3116,5.2975,5.3105,5.3105,5.3104,5.3104,5.3104,0,5.2525,5.2554,5.2608,5.2669,5.2715,5.2706,5.2754,5.2793,5.2853,5.2895,5.2945,5.3018,5.3077,5.3111,5.317,5.3208,5.3207,5.3223,5.322,5.3227,5.3126,5.3107,5.3223,5.3223,5.3223,5.3223,5.3223,5.3223,5.2592,5.2669,5.2683,5.2778,5.2806,5.2873,5.2902,5.294,5.2974,5.3056,5.3106,5.3127,5.3167,5.323,5.3285,5.3293,5.3315,5.3334,5.3341,5.3246,5.3234,5.3222,5.3204,5.3339,5.3339,5.3437,5.3438,5.3438]},{"header":{"parameterUnit":"m.s-1","parameterCategory":1,"la1":30.2991,"la2":30.254,"lo1":-89.0895,"lo2":-89.0444,"dy":0.0017,"dx":0.0017,"nx":28,"ny":28,"refTime":"2025-03-20T09:00:00:Z","depth":0,"parameterNumber":3,"parameterNumberName":"V-component_of_WINDS"},"data":[0,0,0,0,0,0,0,0,0,0,0,0,0,0,0,0,0,0,0,0,0,0,0,0,0,0,0,0,0,0,0,0,0,0,0,0,0,0,0,0,0,0,0,0,0,0,0,0,0,0,0,0,0,0,0,0,0,0,-6.6036,-6.6037,0,-6.6128,-6.6129,-6.613,-6.6115,-6.6114,-6.6112,-6.6111,-6.62,-6.6204,-6.6208,0,0,0,0,0,0,0,0,0,0,0,0,0,-6.5844,-6.5847,-6.6036,-6.6037,-6.6038,-6.6128,-6.6129,-6.6131,-6.6115,-6.6114,-6.6112,-6.611,-6.6199,-6.6204,-6.6208,0,0,0,0,0,0,0,0,0,0,0,0,0,-6.593,-6.5848,-6.6035,-6.6041,-6.6043,-6.6128,-6.6129,-6.6131,-6.6116,-6.6113,-6.6111,-6.6109,-6.6198,-6.6203,-6.6209,-6.6292,0,0,-6.6227,-6.6229,0,0,0,0,0,0,0,0,-6.5926,-6.5938,-6.6039,-6.6041,-6.6043,-6.6108,-6.6094,-6.6185,-6.6116,-6.6088,-6.611,-6.6108,-6.6171,-6.6179,-6.6201,-6.6296,-6.63,-6.6227,-6.6231,-6.6233,-6.6235,0,0,0,0,0,0,0,-6.592,-6.5933,-6.6072,-6.6041,-6.6043,-6.6039,-6.6048,-6.6112,-6.6142,-6.609,-6.6089,-6.6101,-6.6172,-6.6196,-6.6203,-6.6302,-6.6227,-6.6232,-6.6236,-6.6238,-6.6472,-6.6474,0,0,0,0,0,0,-6.5912,-6.5929,-6.6069,-6.6075,-6.5977,-6.6044,-6.6055,-6.6089,-6.6141,-6.6147,-6.6103,-6.61,-6.6187,-6.6197,-6.6206,-6.6309,-6.6233,-6.6239,-6.6242,-6.6469,-6.6472,-6.6475,0,0,0,0,0,0,-6.5908,-6.5925,-6.6065,-6.6002,-6.6019,-6.605,-6.6089,-6.6092,-6.6117,-6.615,-6.6155,-6.6122,-6.6186,-6.6198,-6.6272,-6.6311,-6.6241,-6.6246,-6.6466,-6.647,-6.6474,-6.6513,0,0,0,0,0,0,-6.5903,-6.5924,-6.5956,-6.6003,-6.6023,-6.613,-6.6091,-6.6096,-6.6127,-6.6124,-6.617,-6.6175,-6.6185,-6.6263,-6.6278,-6.6318,-6.6251,-6.6462,-6.6468,-6.6473,-6.6508,-6.6518,-6.6526,0,0,0,0,0,-6.5896,-6.5962,-6.5958,-6.5975,-6.6064,-6.6132,-6.6144,-6.6155,-6.613,-6.6163,-6.6185,-6.6174,-6.6305,-6.6271,-6.6287,-6.633,-6.646,-6.6466,-6.6472,-6.6504,-6.6516,-6.6526,0,0,0,0,0,0,-6.5916,-6.5968,-6.5964,-6.6047,-6.6086,-6.613,-6.6171,-6.6167,-6.6212,-6.6207,-6.6217,-6.6228,-6.6303,-6.6324,-6.6285,-6.6414,-6.6379,-6.6389,-6.6398,-6.6409,-6.6418,-6.6411,-6.6256,0,0,0,0,0,-6.5931,-6.5984,-6.6025,-6.6094,-6.6114,-6.614,-6.617,-6.6175,-6.6215,-6.6231,-6.6258,-6.6296,-6.6347,-6.6379,-6.6427,-6.6512,-6.6522,-6.6549,-6.6558,-6.6565,-6.6573,-6.6621,-6.6634,-6.6495,-6.6495,-6.6495,0,0,-6.5961,-6.5995,-6.6027,-6.6099,-6.613,-6.6184,-6.6153,-6.621,-6.625,-6.6239,-6.6311,-6.6333,-6.6376,-6.6456,-6.6493,-6.6476,-6.6614,-6.6573,-6.6579,-6.6583,-6.6629,-6.6642,-6.6653,-6.65,-6.6499,-6.6498,0,0,-6.6043,-6.6074,-6.6136,-6.6169,-6.6217,-6.6234,-6.6249,-6.6294,-6.6309,-6.6382,-6.6375,-6.6422,-6.6508,-6.654,-6.6567,-6.6665,-6.6656,-6.668,-6.6726,-6.6773,-6.6784,-6.6794,-6.6829,-6.6842,-6.6688,-6.6688,-6.6688,0,-6.6073,-6.6155,-6.6168,-6.6228,-6.626,-6.6255,-6.6318,-6.6348,-6.6408,-6.643,-6.6411,-6.6521,-6.6549,-6.6638,-6.6662,-6.6684,-6.6701,-6.6674,-6.6782,-6.6791,-6.6801,-6.6835,-6.6848,-6.6691,-6.669,-6.669,-6.669,0,-6.619,-6.6247,-6.6292,-6.6353,-6.639,-6.6451,-6.6473,-6.6509,-6.6512,-6.6531,-6.6606,-6.6641,-6.6697,-6.6718,-6.672,-6.6808,-6.6796,-6.6779,-6.6744,-6.6816,-6.6848,-6.6861,-6.6694,-6.6694,-6.6693,-6.6692,0,0,-6.6285,-6.6356,-6.6372,-6.6401,-6.6455,-6.6499,-6.656,-6.6617,-6.6648,-6.669,-6.6741,-6.6816,-6.6802,-6.6833,-6.6839,-6.688,-6.6957,-6.6859,-6.686,-6.6876,-6.7056,-6.7068,-6.7083,-6.6952,-6.6955,-6.6957,-6.7052,0,-6.6373,-6.6482,-6.6497,-6.6594,-6.6647,-6.6645,-6.6698,-6.6737,-6.6757,-6.6804,-6.6826,-6.6879,-6.6856,-6.6875,-6.6915,-6.6939,-6.6993,-6.6932,-6.6999,-6.7002,-6.6988,-6.71,-6.7112,-6.7201,-6.7065,-6.7067,-6.7069,0,-6.6489,-6.6538,-6.664,-6.669,-6.6712,-6.676,-6.6815,-6.686,-6.6904,-6.6916,-6.6953,-6.6955,-6.7018,-6.6981,-6.7068,-6.7027,-6.7055,-6.7071,-6.7075,-6.7081,-6.7039,-6.7109,-6.7229,-6.7243,-6.7088,-6.7087,-6.7085,0,-6.6549,-6.664,-6.6714,-6.6738,-6.6797,-6.6831,-6.6857,-6.6899,-6.6933,-6.6981,-6.7003,-6.7056,-6.7085,-6.7126,-6.7143,-6.7114,-6.7229,-6.7193,-6.724,-6.724,-6.7264,-6.7262,-6.7391,-6.7283,-6.7282,-6.7282,-6.7282,0,-6.6645,-6.6707,-6.6742,-6.6787,-6.6858,-6.6875,-6.6944,-6.6969,-6.7007,-6.7056,-6.7057,-6.7103,-6.7123,-6.7172,-6.7185,-6.7256,-6.7269,-6.728,-6.7282,-6.728,-6.7278,-6.7298,-6.7292,-6.7286,-6.7285,-6.7284,-6.7284,0,-6.6723,-6.6748,-6.6829,-6.688,-6.6894,-6.6944,-6.6987,-6.7031,-6.7051,-6.7114,-6.713,-6.7162,-6.722,-6.7242,-6.7312,-6.7321,-6.7403,-6.74,-6.7389,-6.7389,-6.7435,-6.7431,-6.7581,-6.7602,-6.748,-6.7481,-6.7482,0,-6.6782,-6.6831,-6.6888,-6.6923,-6.6951,-6.7006,-6.7041,-6.706,-6.7097,-6.7153,-6.7191,-6.7249,-6.7297,-6.7391,-6.742,-6.7474,-6.7473,-6.7522,-6.7481,-6.7477,-6.7474,-6.7471,-6.7476,-6.7529,-6.753,-6.7531,-6.7532,0,-6.6885,-6.6896,-6.6948,-6.7006,-6.7049,-6.7095,-6.7139,-6.7167,-6.7193,-6.7234,-6.7296,-6.7333,-6.7407,-6.7465,-6.7522,-6.7547,-6.7544,-6.7545,-6.7559,-6.7556,-6.7548,-6.7554,-6.741,-6.7541,-6.754,-6.754,-6.7539,-6.7539,-6.6956,-6.7,-6.7048,-6.7107,-6.7143,-6.7185,-6.723,-6.7257,-6.7309,-6.7372,-6.738,-6.7446,-6.7491,-6.7567,-6.7595,-6.7647,-6.7633,-6.7653,-6.7658,-6.7663,-6.7666,-6.7541,-6.7657,-6.7657,-6.7656,-6.7656,-6.7656,0,-6.706,-6.7091,-6.7145,-6.7209,-6.7255,-6.7251,-6.73,-6.7339,-6.7398,-6.7441,-6.7489,-6.7561,-6.7618,-6.7653,-6.771,-6.7745,-6.7745,-6.7759,-6.7757,-6.7763,-6.7675,-6.7657,-6.7759,-6.7759,-6.7758,-6.7758,-6.7758,-6.7758,-6.7119,-6.7194,-6.7211,-6.7305,-6.7335,-6.7402,-6.7431,-6.747,-6.7504,-6.7584,-6.7633,-6.7656,-6.7696,-6.7757,-6.781,-6.7819,-6.784,-6.7856,-6.7863,-6.778,-6.7769,-6.7759,-6.7743,-6.786,-6.786,-6.7947,-6.7948,-6.7948]}]]